GFSGL_sfc_wetblb_021.txt.gz
Wetbulb
35.25 34.58 33.52 33.81 34.16 34.31 32.77 32.88 33.30 33.47 33.21 32.43 32.18 32.00 31.47 30.68 30.46 29.66 30.32 29.57 28.89 28.87 28.47 28.37 28.41 28.29 28.34 28.13 28.12 27.89 27.16 26.87 27.97 23.37 25.65 25.87 25.15 25.41 25.60 26.33 26.33 26.78 27.67
34.01 34.11 33.67 33.13 32.35 32.01 32.50 32.32 32.64 32.41 32.16 32.33 31.57 31.29 30.84 30.20 29.88 29.60 29.24 28.51 28.39 27.36 27.27 27.10 26.70 26.07 26.61 26.89 26.94 26.11 26.35 25.95 25.07 24.26 22.73 22.96 23.27 24.26 24.57 24.33 25.00 26.16 27.22
32.81 32.64 32.78 32.92 32.01 31.87 32.12 32.41 31.43 32.14 31.77 31.67 30.90 30.49 30.05 29.68 29.57 29.56 30.00 28.86 28.22 28.24 27.67 26.74 26.67 25.81 24.89 24.90 25.30 25.01 24.95 24.23 23.83 22.17 21.72 22.26 22.80 23.60 23.77 24.57 24.77 25.84 26.29
32.25 31.74 31.57 31.97 32.22 32.48 32.51 32.24 31.64 31.29 31.70 31.03 30.87 30.64 30.12 29.53 29.17 28.69 28.72 28.50 27.57 28.00 27.64 27.20 26.61 25.53 25.43 24.50 23.93 23.82 23.05 22.52 21.70 20.82 20.24 20.28 21.10 22.80 23.30 22.99 23.22 25.20 24.31
31.29 31.07 31.03 31.46 31.64 31.62 31.33 31.34 31.17 30.14 30.45 30.71 30.09 29.84 29.97 28.94 28.75 28.03 27.82 27.96 27.18 27.01 26.61 26.35 26.36 26.20 27.78 26.18 23.84 22.96 21.87 21.21 20.53 19.53 19.08 19.38 20.45 20.88 21.25 23.46 22.01 23.01 23.84
30.05 30.32 30.80 30.40 30.28 30.04 30.70 30.47 29.92 29.22 28.45 29.22 28.78 28.86 28.63 28.52 31.86 32.83 29.68 27.76 26.88 26.44 24.65 24.93 25.46 24.60 25.96 28.15 27.95 26.48 24.03 20.33 18.82 19.42 19.71 18.87 20.25 21.91 22.66 22.05 21.26 20.43 20.18
27.98 29.49 29.82 29.87 29.00 28.77 29.20 28.88 28.49 28.69 28.88 27.87 28.34 28.72 28.37 28.86 32.42 33.75 32.57 27.88 27.06 26.38 25.33 24.06 23.34 23.25 24.39 25.75 28.27 27.59 26.69 26.71 24.48 21.57 19.55 21.20 21.51 22.54 22.73 21.27 21.46 21.44 21.22
25.86 26.22 26.61 24.89 26.08 27.74 27.24 27.38 27.50 27.86 27.57 27.74 27.96 28.14 28.06 28.51 31.67 33.64 32.80 28.48 26.98 26.09 25.42 24.41 23.64 22.68 23.37 24.41 25.57 24.98 24.58 24.80 24.43 23.39 22.84 23.24 24.13 24.04 23.58 23.77 23.12 21.14 19.96
22.97 23.06 23.47 22.53 24.81 26.33 25.60 25.57 26.61 26.34 26.55 27.40 28.37 28.06 27.64 27.92 31.18 32.48 32.87 29.45 25.87 25.05 24.94 24.73 24.18 22.68 24.69 27.36 24.43 23.70 23.27 23.49 27.50 29.00 27.18 26.60 26.47 26.78 26.44 23.26 18.65 15.93 14.42
21.03 21.17 21.52 20.61 22.67 20.45 22.65 24.75 25.53 25.73 25.40 26.15 26.02 26.81 26.61 26.79 30.10 31.16 32.45 30.21 25.29 24.30 23.54 23.49 25.06 23.28 26.09 27.94 23.99 24.01 22.59 22.55 22.58 24.24 24.59 25.88 27.67 24.92 24.62 22.32 18.77 13.70 13.70
19.37 18.86 18.39 18.51 18.81 19.29 20.82 23.51 24.42 23.95 24.82 23.97 24.15 24.96 25.27 25.52 26.41 30.18 32.12 30.32 25.69 23.80 22.21 21.19 22.32 26.21 27.03 28.47 26.35 23.57 22.90 23.15 23.60 22.03 21.68 20.71 20.04 19.10 18.60 18.97 19.24 17.54 14.51
16.73 15.86 14.52 14.21 15.16 16.39 16.46 19.22 23.05 22.72 21.97 22.77 23.25 23.17 23.64 24.02 25.51 28.15 30.89 33.13 28.63 23.80 22.13 22.09 22.29 26.76 27.59 28.71 26.49 24.49 25.24 24.29 22.08 20.61 18.43 17.16 16.37 15.75 16.93 17.75 18.30 18.59 18.97
11.94 10.92 10.90 11.44 12.13 13.02 13.69 15.51 18.05 22.19 20.45 21.28 21.05 20.83 21.07 21.11 22.50 27.09 28.48 31.43 30.06 24.11 23.47 23.68 24.77 27.33 28.18 28.79 28.24 25.75 24.47 20.94 17.85 15.95 15.53 15.87 15.83 16.61 16.63 16.23 16.44 16.18 15.89
8.11 8.54 9.21 8.97 9.54 10.38 12.34 14.38 16.73 20.79 21.22 20.61 20.77 20.09 20.98 20.47 20.38 22.00 24.59 27.25 29.14 26.05 24.30 23.50 24.50 26.50 27.40 26.91 26.64 26.55 21.80 18.66 17.16 16.50 14.87 14.52 15.09 13.99 13.50 14.18 12.92 13.42 12.22
6.06 6.59 6.44 7.23 6.95 8.09 10.41 12.22 14.71 18.82 22.35 21.07 21.71 21.87 20.94 19.38 20.10 22.98 23.68 25.64 26.64 25.51 22.72 22.67 22.53 23.45 22.96 22.92 24.12 19.29 17.49 15.83 14.83 14.27 13.30 12.38 12.35 12.42 12.27 13.04 12.29 11.45 9.34
2.72 3.13 3.76 4.29 4.73 5.92 6.94 8.67 15.80 19.50 23.16 26.73 27.53 26.50 23.65 25.12 26.12 25.95 26.87 28.14 30.27 27.11 20.93 20.07 20.53 21.65 20.42 19.80 15.59 13.75 14.22 13.19 13.43 12.84 12.08 11.40 11.02 10.89 10.72 10.99 10.93 9.11 7.89
-0.53 0.44 1.26 2.08 2.53 3.25 5.14 6.71 6.78 12.29 19.76 24.70 26.71 27.65 28.80 27.31 26.19 26.75 27.68 28.76 31.17 26.96 19.70 19.98 19.96 19.91 17.09 16.43 14.52 13.25 11.92 12.51 12.91 11.88 10.96 10.33 10.13 9.45 8.36 8.26 8.23 8.24 7.65
-0.90 -0.13 -0.07 0.52 1.21 2.42 4.09 5.46 7.30 8.26 10.34 16.40 22.74 24.51 27.16 28.62 28.60 27.17 27.42 28.68 27.39 24.90 20.48 19.73 18.49 17.02 14.32 13.82 13.08 12.37 11.61 10.90 10.41 10.05 9.46 9.08 8.09 7.61 6.35 6.30 6.38 5.41 5.83
-1.12 -0.75 -0.04 0.68 1.96 2.85 4.21 4.81 5.36 6.96 9.31 13.09 18.06 21.12 23.39 28.94 28.82 27.25 27.81 24.81 24.73 22.09 18.84 17.14 15.78 15.44 14.56 13.79 12.83 11.61 10.29 8.83 8.46 7.53 6.57 5.16 4.16 3.23 3.07 4.29 4.95 4.45 4.97
0.25 1.36 2.13 2.08 2.48 2.87 3.09 3.05 4.70 6.80 9.14 13.52 15.95 17.43 20.19 23.07 24.57 22.25 24.19 23.63 24.91 20.29 16.28 15.66 14.68 13.87 12.58 11.09 9.41 7.99 6.41 5.15 3.91 2.76 2.78 2.71 2.56 2.86 3.78 2.59 3.92 4.50 4.59
0.78 1.05 1.66 1.95 1.69 2.17 3.00 3.77 5.82 8.68 10.99 14.29 15.07 17.71 21.54 21.54 21.90 20.84 22.26 23.24 15.88 15.47 13.23 10.95 10.05 9.26 7.97 6.62 5.21 4.13 3.03 2.62 1.78 1.64 1.31 0.56 0.42 0.07 1.55 3.12 3.53 2.74 3.37
1.75 1.96 2.97 3.67 5.61 6.10 6.39 6.65 8.17 11.08 14.19 13.91 14.68 16.36 21.78 22.57 20.43 17.75 12.70 10.85 11.47 10.66 9.36 7.17 5.16 4.48 4.38 4.23 3.28 2.24 1.76 0.89 0.34 0.67 0.43 -0.53 -1.53 -0.79 -0.62 0.99 0.95 2.79 3.74
3.35 3.31 4.13 5.88 8.78 10.72 12.34 11.84 13.01 13.36 13.52 14.32 15.10 11.45 10.68 7.86 6.06 4.73 3.73 3.85 4.29 4.67 5.14 3.95 2.00 -0.09 0.56 0.64 1.82 2.08 1.00 -0.05 -0.63 -1.79 -2.47 -2.66 -3.32 -2.22 -3.01 -1.73 -0.09 0.98 2.60
2.51 2.92 3.69 4.86 6.43 6.88 7.38 8.20 9.42 8.93 7.65 6.32 5.91 5.22 4.08 3.26 1.95 0.80 0.49 0.28 0.37 0.85 1.82 1.43 0.38 -1.44 -3.21 -3.81 -3.56 -2.91 -2.63 -4.07 -4.31 -4.43 -5.04 -5.87 -5.29 -5.05 -3.92 -3.41 -0.59 1.28 4.50
1.22 1.56 2.12 2.49 3.14 4.20 4.24 3.87 3.33 3.01 3.00 2.81 1.99 1.60 1.22 0.95 0.02 -0.44 -0.76 -0.92 -0.87 -1.05 -2.29 -2.22 -2.24 -3.22 -4.08 -5.59 -6.59 -7.22 -7.60 -2.67 -7.78 -8.44 -9.35 -9.30 -7.95 -6.91 -6.04 -3.28 0.13 4.02 4.14
-0.84 -0.73 -0.47 0.30 0.47 1.04 1.18 1.20 0.85 0.98 0.72 0.92 0.85 0.52 0.03 -0.65 -0.77 -0.98 -1.13 -1.45 -2.57 -3.54 -4.60 -4.58 -5.00 -5.19 -5.53 -5.80 -6.31 -5.85 -5.74 -2.97 -4.94 -4.49 -7.64 -7.84 -5.75 -5.04 -3.71 0.74 3.53 4.05 2.43

GFSGL_sfc_wetblb_024.txt.gz
Wetbulb
36.22 36.55 37.24 37.64 37.85 37.88 37.80 38.07 38.53 39.64 39.92 39.50 39.80 39.01 38.68 38.25 38.10 37.18 37.05 37.42 35.92 35.83 35.50 35.87 35.21 36.32 35.71 35.65 35.86 35.43 34.74 35.65 36.61 30.64 33.22 33.30 32.24 31.26 29.39 29.84 30.01 30.18 31.49
35.59 35.67 35.57 36.14 36.36 36.66 36.83 37.18 37.62 36.72 37.93 37.93 38.38 37.75 37.50 37.05 36.91 35.99 35.60 35.32 34.87 34.20 34.77 33.87 34.18 32.79 33.82 34.01 33.39 32.86 33.28 33.47 34.61 28.64 28.71 28.90 29.56 30.12 29.69 28.40 27.78 28.18 29.44
34.19 34.18 34.17 34.04 34.02 33.76 34.43 35.40 36.29 36.28 35.92 36.59 35.23 35.58 35.49 35.71 35.47 35.33 35.01 34.99 34.66 33.74 33.82 31.98 32.34 31.84 30.96 31.13 31.29 30.77 31.19 29.95 32.12 32.32 27.07 28.27 27.73 28.22 26.82 27.32 27.86 28.50 28.84
32.23 32.65 32.51 32.57 32.64 32.64 32.81 33.84 34.02 34.59 34.18 34.38 34.80 34.33 34.64 34.59 33.77 33.60 32.57 33.54 33.88 32.93 33.88 32.25 31.80 30.74 30.86 30.20 29.85 30.38 29.41 29.61 30.01 29.36 29.47 25.73 26.41 26.48 26.71 26.27 25.67 27.83 28.10
30.10 30.51 31.22 31.99 31.92 31.30 31.28 31.78 32.28 32.80 32.65 32.97 32.40 32.21 32.40 32.38 32.14 31.99 31.73 31.82 32.44 31.88 31.96 31.21 30.95 31.18 31.57 31.39 29.97 30.17 29.14 29.12 28.06 27.39 26.86 24.75 24.17 23.05 23.62 26.30 25.95 27.44 28.17
28.41 28.58 29.57 30.22 28.89 27.90 30.21 30.55 30.09 30.39 31.35 31.53 30.62 30.57 30.87 30.66 33.12 34.61 33.33 30.49 30.57 30.68 29.87 30.49 30.28 30.17 29.94 32.80 33.03 33.12 30.71 28.11 26.92 26.96 26.35 24.50 24.59 25.12 26.20 25.64 25.31 24.16 25.28
27.04 27.89 27.79 27.35 26.13 25.64 28.74 28.70 28.32 28.87 29.88 29.54 29.82 30.17 30.05 31.05 33.17 33.91 34.10 31.78 30.11 30.53 30.06 30.10 29.02 28.88 28.80 29.48 32.23 32.75 31.00 31.70 31.23 28.27 26.17 25.95 25.50 26.15 26.82 24.75 24.39 24.48 24.85
26.25 26.58 26.68 25.53 24.42 24.10 26.04 24.63 25.75 27.55 28.23 28.57 29.17 29.92 30.01 30.22 32.66 33.41 33.64 32.30 31.32 31.04 30.83 30.09 29.57 28.38 27.76 28.02 28.71 28.64 28.19 28.33 28.92 27.85 28.54 27.69 28.04 28.07 27.47 26.34 25.80 25.88 26.12
24.77 25.24 25.33 24.23 22.32 21.92 21.72 22.82 23.66 25.51 26.80 27.78 28.48 28.94 29.26 30.29 32.00 32.40 32.62 31.60 31.17 30.34 30.06 30.37 30.28 28.98 28.96 30.05 27.74 27.73 26.76 26.54 29.54 29.25 28.33 29.05 29.07 29.10 27.84 26.38 23.52 21.96 20.37
24.41 24.46 24.06 22.69 20.71 19.57 20.45 20.49 22.23 23.57 23.68 26.58 27.16 28.24 28.88 28.91 30.81 31.72 31.55 30.79 30.43 30.49 30.13 29.02 29.05 28.54 30.26 29.48 27.84 27.45 25.18 24.88 24.68 25.19 25.30 27.26 28.44 27.35 27.70 26.47 25.46 21.11 19.68
23.99 23.22 22.09 21.21 19.31 18.57 18.54 19.52 19.22 19.56 21.18 22.69 24.89 26.40 27.51 28.53 29.02 30.72 31.37 30.38 30.00 30.03 29.81 27.99 27.39 29.63 29.87 29.21 30.77 27.55 27.24 26.31 26.09 24.96 26.07 25.83 25.68 25.81 26.69 26.44 24.64 21.85 19.00
21.79 20.16 18.94 17.87 17.16 16.98 15.29 15.76 16.39 17.24 18.08 19.28 21.74 24.40 26.68 27.64 28.32 29.08 30.56 31.16 31.62 29.92 29.89 28.62 27.49 28.05 29.31 29.17 29.80 29.14 29.67 27.96 25.59 25.58 24.57 23.36 22.68 21.24 21.55 20.94 21.09 21.51 22.03
16.57 14.83 14.43 14.64 14.32 13.99 13.11 13.30 14.42 15.46 16.21 17.84 20.49 23.04 24.26 26.36 27.74 28.09 29.42 30.21 31.30 30.16 31.21 29.24 28.19 27.52 28.82 28.84 30.08 30.23 28.12 25.27 24.12 22.35 22.47 21.78 21.54 20.72 19.96 19.07 19.60 19.87 19.64
10.66 10.84 11.43 10.60 11.07 11.35 12.18 12.74 12.80 13.49 14.51 16.59 19.20 21.87 23.70 24.84 25.68 26.48 26.02 26.44 28.85 29.79 30.71 28.30 27.10 27.15 28.25 28.15 27.74 29.68 26.98 24.03 23.49 22.13 21.25 20.81 19.77 18.12 16.84 17.84 16.00 15.65 14.77
6.03 6.38 6.84 7.57 7.18 7.55 9.12 10.05 10.90 12.88 14.41 13.97 16.25 18.79 20.34 21.32 24.85 26.93 25.84 24.68 25.97 28.08 27.98 26.27 25.03 24.67 24.59 25.58 25.72 25.27 24.58 22.78 21.14 21.41 18.99 16.87 16.31 15.65 15.04 15.81 15.22 14.51 12.57
1.86 2.72 3.50 3.69 4.05 4.70 4.91 5.52 10.91 13.24 15.54 17.65 19.84 20.08 20.88 23.99 26.80 27.51 27.89 27.77 28.02 29.21 25.01 23.06 22.56 23.08 23.29 24.31 25.22 23.20 22.06 20.12 20.10 19.00 17.33 15.89 14.57 14.21 14.28 14.31 14.41 12.94 11.70
0.23 1.16 1.80 2.01 2.42 2.39 2.86 2.91 2.13 7.13 12.56 15.22 17.71 19.62 21.65 22.98 26.25 28.81 29.44 28.82 28.36 29.01 23.71 22.98 22.43 22.99 23.82 24.58 25.06 20.75 19.57 19.38 17.87 16.69 15.75 14.89 14.28 14.24 13.63 12.89 12.40 12.06 11.30
1.19 1.13 1.35 1.63 1.79 1.98 2.19 2.49 3.11 3.10 3.27 6.42 12.76 15.37 19.10 23.93 26.78 28.72 29.67 28.89 25.52 27.08 26.12 22.47 22.31 23.14 23.85 23.81 19.47 18.11 17.35 15.65 15.88 14.99 14.12 13.73 13.17 12.46 11.44 11.07 11.03 10.42 9.91
1.97 2.37 2.51 2.51 2.52 2.48 2.76 2.71 3.37 3.56 3.83 5.57 7.75 12.00 15.45 20.44 24.68 26.23 27.75 26.63 24.35 24.49 25.91 22.31 23.18 23.26 21.28 19.87 18.39 16.90 15.62 15.12 14.54 13.55 12.61 11.91 11.92 11.54 10.30 10.46 10.10 9.13 8.85
3.16 3.62 3.75 3.84 3.46 3.29 3.62 3.53 3.84 4.38 4.90 5.52 7.41 10.04 13.94 19.99 20.09 21.66 26.91 26.73 25.23 25.35 24.64 22.47 20.94 18.67 18.98 18.38 17.46 15.36 13.86 12.54 11.79 11.30 10.33 9.66 8.95 9.65 8.73 8.67 9.07 8.96 8.53
3.62 4.17 3.84 4.09 4.12 4.63 5.02 4.95 5.01 5.17 5.47 6.99 9.14 13.00 20.06 19.58 19.65 21.58 24.99 25.68 25.31 24.19 20.34 18.23 17.24 16.53 15.82 14.71 13.32 12.28 11.01 9.85 9.03 8.18 7.55 7.72 7.57 6.72 9.18 9.30 9.16 7.76 7.37
5.02 4.76 4.80 4.75 5.89 6.69 8.04 9.55 10.03 8.75 7.89 8.68 11.74 17.39 19.90 19.45 20.62 21.67 18.14 17.11 17.81 18.10 17.34 15.74 13.78 12.78 11.73 11.05 10.56 9.87 8.16 6.96 7.16 7.03 6.67 5.97 5.60 6.41 6.77 7.03 6.57 7.37 7.36
3.83 3.87 4.47 5.50 6.79 7.57 9.33 10.35 10.77 12.41 12.93 14.30 13.19 12.76 12.91 11.76 10.96 10.76 9.81 10.72 11.07 10.94 11.41 10.64 9.07 8.34 9.34 9.88 10.52 9.77 7.75 6.79 6.91 7.29 5.90 5.44 4.99 5.20 5.51 6.23 5.79 5.15 5.88
2.48 2.52 3.17 3.90 4.65 5.20 6.10 6.24 6.31 6.32 6.48 6.00 5.89 5.40 5.00 4.89 4.43 4.34 4.99 5.95 6.52 7.21 7.77 7.29 6.73 5.79 5.36 6.00 7.21 7.89 7.37 6.41 6.02 6.03 5.80 4.95 3.88 3.45 4.35 3.90 4.48 4.39 5.36
1.31 1.23 1.34 1.57 1.97 2.34 3.33 3.87 3.94 4.40 4.19 4.09 3.55 3.16 3.12 2.68 2.14 2.37 3.07 3.75 3.78 4.11 4.11 4.66 4.76 4.08 3.12 2.40 2.42 1.69 4.51 2.69 1.67 1.44 0.81 1.98 2.15 1.82 1.82 2.25 3.42 4.73 5.32
-0.72 -0.63 -0.11 0.29 0.30 0.60 0.92 1.20 1.51 2.03 2.03 2.03 1.83 1.80 1.87 1.72 2.05 2.27 2.32 2.11 1.70 1.66 1.78 1.79 1.72 0.91 0.86 1.11 0.43 -0.58 0.13 1.38 -2.21 -1.91 -1.26 -0.75 -0.44 0.72 1.34 1.48 1.84 3.44 5.97

GFSGL_sfc_wetblb_030.txt.gz
Wetbulb
31.86 32.41 32.08 31.80 32.02 31.88 31.17 31.62 31.80 32.29 33.04 33.26 33.56 32.96 33.30 33.38 34.12 33.59 33.29 33.30 32.64 32.81 32.76 31.85 33.42 32.96 35.27 33.16 32.81 32.17 32.32 31.69 30.52 26.65 27.95 29.05 31.22 31.79 31.52 29.27 29.87 28.87 30.39
31.91 31.70 31.66 31.22 30.33 28.98 29.18 29.95 30.03 30.41 30.62 31.20 32.23 31.86 32.11 32.28 32.06 32.53 32.60 33.23 31.90 31.79 31.66 31.70 32.00 33.82 32.63 31.24 32.85 33.83 34.53 31.83 31.12 24.61 25.60 26.43 28.34 31.07 30.08 28.32 27.30 27.81 26.98
29.97 28.91 29.16 28.75 28.17 27.86 27.07 27.93 28.95 29.03 28.36 29.02 29.38 29.41 30.13 30.37 30.77 31.52 31.33 31.73 31.74 31.92 31.99 31.43 32.71 30.59 32.29 32.94 31.62 32.90 32.95 31.87 31.99 25.33 24.05 25.17 25.51 29.20 25.84 25.84 25.47 24.33 26.52
28.93 28.25 27.10 27.35 27.95 27.68 26.90 26.05 26.50 27.69 26.82 26.81 27.38 28.14 28.80 30.01 30.13 30.32 30.76 31.26 31.36 31.98 32.08 32.28 32.43 31.66 31.84 31.96 31.69 31.77 31.90 30.98 32.67 27.88 22.85 24.06 24.60 27.69 27.37 24.74 23.77 26.11 25.20
27.04 26.31 25.92 25.98 26.33 25.86 25.48 25.32 24.97 26.39 26.56 25.92 26.36 26.86 27.09 28.02 29.22 29.40 30.02 30.52 29.95 30.59 31.04 31.29 31.72 32.07 33.59 33.72 31.95 32.19 31.39 31.37 31.02 31.43 27.63 21.57 23.64 24.87 25.26 25.57 24.90 25.67 25.71
24.77 24.90 26.02 25.95 26.06 25.75 25.17 24.59 24.50 24.28 24.60 24.21 24.51 25.28 25.25 26.96 30.93 32.55 32.29 30.20 31.37 31.00 30.43 30.67 30.84 31.23 31.40 35.14 36.59 36.91 34.31 31.95 31.40 30.71 30.83 26.66 25.68 26.06 26.96 25.04 25.28 23.86 21.33
26.08 25.66 25.77 25.79 24.63 25.31 25.39 24.40 23.44 22.35 22.42 22.77 23.16 23.27 23.56 25.34 29.94 30.95 32.32 29.82 29.56 30.22 30.55 30.67 31.05 31.10 30.99 31.12 33.47 36.06 36.53 37.09 36.54 32.87 31.24 30.75 27.85 26.57 26.46 25.35 25.36 26.41 26.30
23.96 23.17 23.78 24.27 23.95 24.95 24.24 23.77 23.19 22.30 21.39 21.51 21.49 21.54 21.82 23.39 28.13 29.29 30.48 28.73 28.41 28.97 29.52 29.97 30.14 30.45 31.25 31.03 30.84 30.09 30.70 32.39 33.86 34.01 32.79 33.10 32.71 29.45 28.84 28.34 27.47 28.22 24.84
23.25 23.02 22.84 21.81 21.40 22.44 21.71 22.11 22.63 21.80 20.94 20.31 20.55 19.52 19.49 20.52 25.38 26.78 27.27 25.91 26.71 27.19 28.82 29.44 29.43 29.82 32.18 33.70 31.09 29.55 29.18 29.75 33.58 36.15 36.61 36.76 36.78 35.29 31.10 28.95 25.56 23.91 18.25
20.64 20.61 20.33 19.71 18.41 18.05 18.91 19.38 20.67 20.34 20.16 20.07 18.95 18.90 18.37 17.24 22.20 24.18 24.64 23.25 23.54 25.36 26.94 28.35 30.22 29.29 32.77 33.61 31.24 30.42 28.01 28.33 29.38 30.21 31.37 34.31 35.75 34.26 33.00 30.11 28.15 24.84 25.27
16.43 15.53 14.75 13.86 12.04 12.06 12.47 13.57 13.91 14.24 15.53 14.91 14.87 15.25 15.17 15.89 16.46 21.74 23.38 21.53 22.20 23.39 24.61 25.84 27.86 31.78 33.53 34.03 34.41 31.41 30.04 30.43 30.19 29.87 29.61 30.42 31.12 30.30 29.76 29.77 29.91 29.07 26.02
11.81 9.95 7.71 6.45 6.65 7.87 6.13 6.78 7.46 8.15 8.42 9.07 9.75 10.66 12.85 14.49 17.57 19.76 22.09 23.62 24.73 22.67 23.67 26.08 27.22 31.02 32.18 33.04 33.21 34.35 34.78 33.50 29.70 28.58 28.04 27.46 28.20 27.38 27.98 28.41 28.23 28.79 28.54
5.47 3.26 2.83 3.51 4.08 4.35 2.82 2.90 2.91 3.77 3.93 4.51 6.04 6.41 7.84 11.34 12.59 17.29 19.62 21.45 22.97 21.93 24.77 27.84 30.05 30.77 31.43 31.43 33.29 34.36 33.00 31.97 29.45 27.35 26.73 26.25 27.18 27.79 27.35 26.15 26.27 24.14 22.78
1.13 1.57 2.46 1.87 1.73 2.44 3.70 3.86 2.58 2.21 2.13 2.65 2.70 2.91 4.16 6.02 8.04 10.44 12.15 14.17 16.47 19.91 24.75 26.13 27.93 28.67 29.48 29.16 29.45 31.99 32.06 31.00 29.30 27.18 26.21 26.50 26.74 26.03 25.15 25.16 22.56 22.08 19.99
1.12 1.56 1.12 1.46 1.04 1.57 2.84 2.56 3.19 4.95 5.81 4.82 5.95 7.07 6.73 6.72 9.16 13.87 14.39 13.15 13.50 16.71 19.16 22.42 23.24 22.61 22.62 25.00 27.17 29.00 28.96 29.69 28.01 27.96 26.14 24.91 24.20 24.46 23.68 24.49 22.42 21.10 18.74
0.32 0.86 0.97 0.81 0.68 1.35 1.25 1.59 8.71 11.20 12.96 14.18 15.35 13.97 12.05 15.94 17.64 17.96 18.47 19.05 19.67 20.70 17.69 16.89 18.46 20.93 20.49 22.87 25.21 25.56 25.81 26.98 27.65 27.51 25.31 24.51 23.55 22.34 20.21 20.27 19.87 18.69 17.44
0.09 0.87 0.45 0.41 -0.08 -0.22 0.46 0.41 -0.42 4.63 11.53 12.90 13.78 14.57 15.60 16.14 16.83 17.20 17.95 18.67 19.71 19.92 15.62 16.63 17.02 19.18 21.83 22.74 24.38 24.18 24.23 25.48 27.51 26.73 24.62 24.33 21.23 19.97 17.87 17.10 16.73 17.07 16.17
1.56 1.06 -0.24 -0.35 -0.32 0.14 0.83 1.72 2.56 1.84 1.28 2.84 9.54 11.88 14.13 16.46 17.31 17.65 18.35 18.27 13.41 14.93 14.76 15.93 16.37 19.01 22.18 23.12 23.16 23.31 24.72 25.19 25.27 24.81 23.08 20.40 19.59 17.74 17.01 16.48 16.10 15.46 15.27
0.48 0.41 0.71 0.65 1.17 1.92 2.90 3.60 3.87 3.74 3.44 3.97 5.51 9.75 11.12 14.42 16.16 17.34 18.63 14.10 12.70 12.08 12.66 14.69 18.02 20.24 22.67 23.22 23.17 23.74 25.14 22.10 21.72 20.72 19.83 19.01 18.96 17.65 16.75 16.36 15.84 15.50 14.91
0.23 1.56 2.19 1.40 1.45 1.63 2.52 2.87 3.38 4.23 4.84 6.34 7.12 7.67 10.67 8.95 7.82 8.90 11.13 12.11 14.30 14.57 15.76 17.26 21.83 24.10 23.86 23.33 23.80 23.86 22.24 20.60 19.63 19.16 18.42 17.80 17.34 17.01 15.29 14.48 14.21 13.18 13.00
0.53 -0.39 -0.03 0.45 0.20 1.24 2.48 3.00 3.24 4.26 4.33 4.99 5.40 7.41 15.07 8.10 6.17 7.56 9.10 10.52 11.38 14.05 17.23 18.01 22.11 23.61 22.53 20.42 21.68 20.73 19.38 18.91 18.33 17.38 16.49 15.97 15.93 14.53 14.72 14.28 13.34 12.69 11.75
-2.34 -1.46 -1.12 -1.63 -0.19 0.50 1.15 2.33 2.85 3.26 2.98 2.70 2.73 4.30 10.94 4.46 4.65 4.64 5.56 6.83 7.90 9.29 12.03 16.81 16.53 16.45 15.15 16.40 18.21 17.31 15.96 14.93 14.48 14.68 14.22 14.19 13.61 12.98 12.50 11.52 11.04 10.82 10.90
-2.45 -2.61 -2.96 -2.52 -1.61 -0.32 0.15 0.98 1.50 1.49 1.57 1.98 2.30 1.98 2.28 2.32 2.26 2.61 3.30 4.91 5.88 6.68 8.31 9.56 10.55 11.15 12.87 13.77 14.99 14.96 13.00 12.28 12.60 13.04 12.33 11.84 11.63 11.41 11.34 10.48 9.85 9.14 8.73
-5.10 -3.79 -3.43 -3.36 -2.99 -2.10 -1.58 -0.72 0.47 1.00 1.09 1.50 1.61 1.76 1.68 1.82 1.78 2.10 2.61 3.22 3.90 4.53 5.45 6.17 6.54 7.31 9.11 9.79 10.67 11.34 11.61 11.68 12.23 12.24 12.02 10.91 10.23 10.23 9.98 9.28 9.01 8.47 8.26
-8.89 -7.03 -6.18 -4.55 -4.13 -3.66 -3.35 -2.77 -1.48 -0.67 0.55 1.23 1.35 1.65 1.83 2.10 1.98 2.06 2.27 2.59 2.18 2.08 2.33 2.61 3.42 3.97 4.43 6.04 7.44 9.60 11.78 10.78 10.61 11.36 10.79 10.09 9.13 8.73 8.21 7.84 7.70 7.69 7.63
-9.58 -9.92 -10.36 -7.05 -6.09 -4.50 -3.80 -3.64 -3.43 -2.84 -2.11 -0.94 -0.27 0.31 0.55 0.35 0.79 1.33 1.74 1.89 1.76 1.78 1.72 1.90 1.98 2.73 4.96 5.58 6.40 8.09 8.71 9.53 7.92 8.55 8.53 7.97 6.57 6.11 6.42 5.85 5.74 5.64 5.64

GFSGL_sfc_wetblb_033.txt.gz
Wetbulb
30.08 30.45 31.38 31.31 31.40 30.46 29.05 28.91 29.04 29.67 29.94 29.85 31.00 30.95 30.64 30.43 31.26 31.55 31.56 31.79 31.71 32.02 32.13 31.51 32.48 33.55 34.89 34.74 31.51 33.91 33.77 30.78 33.89 35.41 28.17 27.99 30.13 31.57 31.88 33.77 31.65 31.69 33.36
30.76 29.69 29.49 30.20 29.74 29.50 28.32 28.06 28.44 28.58 29.28 29.04 29.11 28.64 28.68 29.20 29.45 29.16 29.60 30.17 30.43 30.70 31.31 30.93 31.85 33.21 31.08 33.30 34.14 32.48 33.59 33.43 33.42 33.56 26.13 25.89 27.88 31.25 31.85 31.34 29.92 30.91 30.06
29.36 28.86 28.61 28.45 28.39 27.23 28.22 28.00 27.99 27.84 27.86 28.37 27.95 27.05 26.45 27.16 27.74 28.35 28.52 28.75 28.98 29.29 30.02 30.73 31.41 30.49 30.83 31.83 31.28 31.76 32.92 33.30 32.05 33.13 32.96 25.10 27.38 28.83 27.03 28.82 28.30 28.10 27.62
28.49 27.38 26.06 25.74 26.75 26.69 26.97 26.81 26.36 26.53 26.43 26.91 27.55 27.07 26.79 26.54 27.00 27.39 28.20 27.68 27.68 28.46 29.39 30.17 30.81 31.24 31.90 31.87 31.13 31.30 31.46 32.06 30.86 30.81 32.47 23.85 24.73 26.40 29.12 27.57 24.52 25.77 25.92
26.25 25.56 25.34 25.66 26.14 26.41 25.91 25.43 25.89 25.73 25.40 25.87 25.61 25.00 25.01 25.52 26.42 25.93 27.29 27.84 28.08 28.54 29.32 29.65 29.77 30.49 32.90 33.79 32.01 31.89 30.76 30.60 31.23 30.09 30.50 23.04 23.55 24.22 26.57 27.48 26.95 26.40 25.75
24.12 24.92 25.91 25.66 26.20 26.39 26.31 26.31 26.16 25.31 24.45 23.74 23.54 22.85 22.73 24.29 27.93 29.33 29.26 26.89 27.17 27.66 27.87 29.02 29.81 29.89 30.31 33.76 35.51 36.43 35.26 31.73 29.57 30.48 30.79 30.28 28.61 28.35 27.77 27.59 27.31 24.36 21.71
25.07 24.86 25.07 25.27 24.45 24.74 25.09 24.69 24.26 23.75 24.35 23.59 23.25 22.79 21.93 22.35 26.61 27.66 27.96 26.16 25.85 26.14 26.79 27.67 28.53 29.51 29.76 30.14 32.23 34.89 35.45 36.76 37.12 32.41 30.50 31.03 30.99 29.93 27.97 27.21 26.61 27.50 28.23
22.08 20.63 21.65 22.48 21.31 21.99 21.47 21.13 20.82 21.22 20.96 21.33 21.78 22.12 21.53 21.95 25.92 26.30 26.09 23.82 23.41 23.84 24.89 26.40 27.05 27.78 28.89 28.95 29.23 29.12 29.96 31.16 32.97 33.66 34.09 33.36 33.77 32.07 29.65 29.82 28.37 28.77 27.19
20.28 19.89 18.93 17.50 15.78 16.07 14.25 15.01 15.58 15.22 15.72 16.46 18.86 19.19 19.25 19.78 24.20 24.65 23.98 21.05 20.50 20.62 22.54 23.72 24.81 26.01 29.43 31.62 29.15 28.64 28.58 30.00 33.07 35.34 36.09 36.87 37.64 37.60 32.26 29.04 27.14 25.35 24.06
17.49 16.28 15.35 13.80 10.35 9.44 9.75 8.88 10.07 10.18 11.55 12.60 12.57 13.46 13.90 13.66 18.88 20.60 20.60 18.03 16.70 17.92 19.39 21.10 24.18 24.63 28.68 30.36 28.11 27.86 26.95 28.23 29.71 29.99 30.93 34.08 35.83 34.83 36.48 30.34 28.65 25.70 26.18
13.38 12.45 11.35 9.78 6.96 6.21 6.06 6.55 5.86 5.49 7.00 5.71 6.96 8.18 8.97 10.59 11.67 16.99 18.75 16.68 16.18 16.22 17.03 18.46 21.17 25.42 27.46 29.37 31.39 28.67 28.35 29.95 30.55 30.39 29.61 29.86 30.65 31.86 32.91 33.59 30.53 29.73 27.65
9.86 7.87 5.47 4.02 3.99 5.23 2.67 2.90 2.87 2.65 2.17 2.26 2.75 4.09 6.98 9.18 12.32 14.12 16.46 17.84 18.34 14.84 15.20 17.61 19.37 23.64 25.84 27.93 28.97 30.96 33.50 33.76 31.14 30.10 28.95 28.28 28.59 29.25 31.11 32.53 31.71 30.75 31.38
0.44 0.02 0.80 2.25 2.91 2.96 1.00 1.14 1.28 1.95 1.71 1.89 2.70 2.53 3.56 6.88 7.85 13.04 14.90 15.55 16.00 13.20 13.77 16.02 20.08 21.41 22.60 25.89 29.02 31.58 30.43 29.60 29.23 29.38 28.60 27.45 28.13 28.97 30.41 31.04 31.19 30.31 29.71
-6.01 -0.36 1.92 1.76 1.23 1.51 2.80 2.67 1.37 0.99 0.85 1.42 1.51 1.50 3.07 5.29 7.20 8.96 9.30 8.98 12.72 13.03 14.31 13.05 15.09 18.16 21.28 21.85 23.60 29.03 28.70 28.28 28.04 28.28 29.03 28.16 28.35 28.01 28.10 28.44 26.78 24.89 23.92
-0.43 1.41 1.32 1.53 0.59 1.02 2.00 1.39 2.30 4.36 5.76 5.38 7.37 8.86 8.40 8.14 10.21 15.52 16.88 15.79 15.73 16.55 15.20 12.76 12.54 14.92 15.57 16.17 22.90 24.26 24.28 25.16 25.90 27.55 28.94 27.79 27.24 26.42 26.00 26.39 26.01 22.72 22.97
-1.17 0.76 0.96 1.34 1.36 1.45 0.51 0.62 7.96 10.57 12.64 14.30 15.71 14.38 12.83 16.62 18.22 18.78 19.67 20.22 20.61 20.79 15.52 13.61 12.71 12.83 13.18 14.90 16.78 20.75 21.93 22.84 25.02 27.66 28.54 28.23 25.93 24.16 24.39 24.36 25.00 22.34 22.12
-2.83 0.18 0.73 1.18 0.47 -0.32 -0.27 -0.56 -1.31 3.90 11.23 12.69 13.82 15.06 16.07 16.73 18.42 19.50 20.30 20.70 21.25 20.39 14.22 12.46 11.27 12.02 13.49 15.13 16.66 18.77 21.49 23.25 25.14 26.72 27.71 27.44 25.20 24.01 23.66 22.74 22.14 21.05 21.01
-3.17 -0.17 -0.14 0.32 0.05 -0.09 0.10 0.47 1.12 0.65 0.67 2.35 9.48 12.30 15.16 16.25 17.15 19.02 20.26 20.00 14.42 14.99 13.17 11.45 10.37 12.04 13.52 14.44 18.08 19.05 20.84 23.05 23.28 25.13 26.41 25.95 25.17 23.97 22.36 20.59 20.08 19.66 19.93
-1.96 -0.99 -0.73 0.27 0.72 0.60 0.56 0.68 1.13 1.51 1.86 2.24 4.26 8.11 8.62 12.91 15.15 15.30 15.34 10.32 9.52 9.36 11.12 12.56 12.85 12.06 12.24 14.23 16.81 18.21 21.20 21.76 22.92 24.08 25.20 24.69 22.90 21.88 20.28 20.42 19.28 19.71 19.09
-3.27 -0.55 -0.06 -1.71 -1.40 -1.22 -0.90 -0.26 0.38 0.31 1.06 1.40 1.52 2.23 3.79 8.09 2.09 2.51 4.21 5.48 6.29 7.45 8.31 7.22 12.90 14.88 15.28 15.75 17.88 19.90 21.49 22.26 22.41 23.46 22.96 21.41 21.50 21.00 19.55 18.92 18.13 17.06 16.67
-2.60 -3.67 -3.34 -2.62 -3.72 -2.88 -1.89 -1.61 -0.65 0.09 0.25 0.01 0.80 3.03 12.64 3.99 1.31 1.33 2.00 3.30 4.18 5.15 6.29 8.43 15.18 16.09 17.84 20.99 20.20 22.87 23.34 21.67 21.28 20.93 19.69 19.51 19.36 18.05 18.76 17.97 17.03 16.90 15.92
-11.33 -8.14 -5.63 -5.52 -4.10 -4.02 -3.79 -2.42 -0.96 -0.55 0.09 -0.14 0.52 2.26 9.79 1.99 1.31 1.13 1.50 2.04 3.23 4.45 5.71 7.03 9.91 11.45 12.95 15.18 17.96 19.15 18.99 17.98 17.99 17.85 17.45 16.96 17.12 16.03 15.81 15.17 14.89 13.99 13.23
-10.97 -9.50 -8.02 -6.13 -5.30 -4.89 -4.67 -4.59 -3.17 -1.49 -1.02 0.10 0.86 0.83 1.39 1.26 1.41 1.32 1.22 1.81 2.35 2.90 3.73 4.61 5.23 7.07 9.60 11.11 12.74 13.52 13.21 13.24 14.71 16.04 15.01 14.26 14.08 13.74 13.51 12.60 12.31 12.05 11.74
-14.86 -13.82 -11.92 -9.36 -8.30 -6.48 -6.82 -5.60 -4.69 -3.22 -3.00 -1.81 -1.38 -0.58 -0.01 0.63 0.76 1.19 1.79 2.45 2.65 2.78 3.12 3.24 4.08 4.17 5.44 8.17 10.43 11.18 11.73 12.58 13.60 13.95 14.11 13.01 12.19 12.53 12.09 11.39 11.21 10.71 10.25
-17.39 -17.47 -16.51 -14.78 -14.32 -11.08 -9.20 -7.91 -5.93 -5.66 -4.46 -3.02 -2.94 -2.53 -1.93 -0.59 -0.30 0.18 1.08 1.79 2.39 2.43 2.62 2.99 3.56 5.69 6.41 6.63 7.60 9.08 10.93 11.42 11.65 12.40 12.31 11.70 10.85 10.54 10.22 9.57 9.33 9.34 9.11
-14.56 -16.83 -17.97 -16.79 -15.43 -14.88 -14.78 -11.23 -9.89 -8.14 -7.67 -5.80 -5.22 -4.75 -3.96 -3.52 -2.05 -1.11 -0.30 0.22 0.70 1.48 2.01 2.52 2.92 3.48 5.27 9.14 10.36 10.99 11.43 11.98 9.96 10.49 10.45 9.80 8.66 8.32 8.40 7.95 8.01 7.61 7.17